| time (UTC) | temp F | wind direction | speed MPH | gust MPH | rain 1hr in | rain 24hr in | rain mn in | humidity % | barometer mb |
| 20260503004841 | 64 | 0 | 0.0 | 0.0 | 0.00 | 0.00 | 0.00 | 1115.6 | |
| 20260503004335 | 65 | 0 | 0.0 | 0.0 | 0.00 | 0.00 | 0.00 | 1115.6 | |
| 20260503003830 | 65 | 0 | 0.0 | 0.0 | 0.00 | 0.00 | 0.00 | 1115.6 | |
| 20260503003325 | 65 | 0 | 0.0 | 0.0 | 0.00 | 0.00 | 0.00 | 1115.7 | |
| 20260503002819 | 65 | 0 | 0.0 | 0.0 | 0.00 | 0.00 | 0.00 | 1115.7 | |
| 20260503002314 | 65 | 0 | 0.0 | 0.0 | 0.00 | 0.00 | 0.00 | 1115.7 | |
| 20260503001808 | 65 | 0 | 0.0 | 0.0 | 0.00 | 0.00 | 0.00 | 1115.7 | |
| 20260503001303 | 65 | 0 | 0.0 | 0.0 | 0.00 | 0.00 | 0.00 | 1115.7 | |
| 20260503000758 | 65 | 0 | 0.0 | 0.0 | 0.00 | 0.00 | 0.00 | 1115.8 | |
| 20260503000252 | 65 | 0 | 0.0 | 0.0 | 0.00 | 0.00 | 0.00 | 1115.8 | |
| 20260502235747 | 65 | 0 | 0.0 | 0.0 | 0.00 | 0.00 | 0.00 | 1116.0 | |
| 20260502235241 | 66 | 0 | 0.0 | 0.0 | 0.00 | 0.00 | 0.00 | 1116.0 | |
| 20260502234736 | 66 | 0 | 0.0 | 0.0 | 0.00 | 0.00 | 0.00 | 1116.1 | |
| 20260502234230 | 66 | 0 | 0.0 | 0.0 | 0.00 | 0.00 | 0.00 | 1116.1 | |
| 20260502233725 | 66 | 0 | 0.0 | 0.0 | 0.00 | 0.00 | 0.00 | 1116.1 | |
| 20260502233220 | 66 | 0 | 0.0 | 0.0 | 0.00 | 0.00 | 0.00 | 1116.2 | |
| 20260502232714 | 66 | 0 | 0.0 | 0.0 | 0.00 | 0.00 | 0.00 | 1116.3 | |
| 20260502232209 | 66 | 0 | 0.0 | 0.0 | 0.00 | 0.00 | 0.00 | 1116.3 | |
| 20260502231703 | 66 | 0 | 0.0 | 0.0 | 0.00 | 0.00 | 0.00 | 1116.3 | |
| 20260502231158 | 67 | 0 | 0.0 | 0.0 | 0.00 | 0.00 | 0.00 | 1116.4 | |
| 20260502230652 | 67 | 0 | 0.0 | 0.0 | 0.00 | 0.00 | 0.00 | 1116.4 | |
| 20260502230147 | 67 | 0 | 0.0 | 0.0 | 0.00 | 0.00 | 0.00 | 1116.4 | |
| 20260502225642 | 67 | 0 | 0.0 | 0.0 | 0.00 | 0.00 | 0.00 | 1116.5 | |
| 20260502225136 | 67 | 33 | 0.0 | 0.0 | 0.00 | 0.00 | 0.00 | 1116.5 | |
| 20260502224631 | 67 | 0 | 0.0 | 0.0 | 0.00 | 0.00 | 0.00 | 1116.5 | |
| 20260502224126 | 67 | 0 | 0.0 | 3.0 | 0.00 | 0.00 | 0.00 | 1116.5 | |
| 20260502223620 | 68 | 35 | 0.0 | 3.0 | 0.00 | 0.00 | 0.00 | 1116.5 | |
| 20260502223115 | 68 | 46 | 0.0 | 3.0 | 0.00 | 0.00 | 0.00 | 1116.6 | |
| 20260502222609 | 68 | 16 | 0.0 | 3.0 | 0.00 | 0.00 | 0.00 | 1116.6 | |
| 20260502222104 | 68 | 353 | 0.0 | 0.0 | 0.00 | 0.00 | 0.00 | 1116.5 | |
| 20260502221558 | 68 | 45 | 0.0 | 0.0 | 0.00 | 0.00 | 0.00 | 1116.4 | |
| 20260502221053 | 68 | 45 | 0.0 | 0.0 | 0.00 | 0.00 | 0.00 | 1116.4 | |
| 20260502220548 | 68 | 45 | 0.0 | 0.0 | 0.00 | 0.00 | 0.00 | 1116.4 | |
| 20260502220042 | 68 | 45 | 0.0 | 0.0 | 0.00 | 0.00 | 0.00 | 1116.4 | |
| 20260502215537 | 68 | 45 | 0.0 | 0.0 | 0.00 | 0.00 | 0.00 | 1116.4 | |
| 20260502215031 | 69 | 45 | 0.0 | 0.0 | 0.00 | 0.00 | 0.00 | 1116.4 | |
| 20260502214526 | 69 | 45 | 0.0 | 0.0 | 0.00 | 0.00 | 0.00 | 1116.3 | |
| 20260502214020 | 69 | 45 | 0.0 | 0.0 | 0.00 | 0.00 | 0.00 | 1116.4 | |
| 20260502213515 | 69 | 45 | 0.0 | 0.0 | 0.00 | 0.00 | 0.00 | 1116.3 | |
| 20260502213009 | 69 | 45 | 0.0 | 0.0 | 0.00 | 0.00 | 0.00 | 1116.2 | |
| 20260502212504 | 69 | 45 | 0.0 | 0.0 | 0.00 | 0.00 | 0.00 | 1116.3 | |
| 20260502211959 | 69 | 45 | 0.0 | 0.0 | 0.00 | 0.00 | 0.00 | 1116.2 | |
| 20260502211453 | 69 | 45 | 0.0 | 0.0 | 0.00 | 0.00 | 0.00 | 1116.3 | |
| 20260502210948 | 69 | 45 | 0.0 | 0.0 | 0.00 | 0.00 | 0.00 | 1116.3 | |
| 20260502210442 | 69 | 45 | 0.0 | 0.0 | 0.00 | 0.00 | 0.00 | 1116.4 | |
| 20260502205937 | 69 | 45 | 0.0 | 0.0 | 0.00 | 0.00 | 0.00 | 1116.4 | |
| 20260502205431 | 69 | 45 | 0.0 | 0.0 | 0.00 | 0.00 | 0.00 | 1116.3 | |
| 20260502204926 | 70 | 45 | 0.0 | 0.0 | 0.00 | 0.00 | 0.00 | 1116.4 | |
| 20260502204421 | 70 | 45 | 0.0 | 0.0 | 0.00 | 0.00 | 0.00 | 1116.3 | |
| 20260502203915 | 70 | 45 | 0.0 | 0.0 | 0.00 | 0.00 | 0.00 | 1116.3 | |
| 20260502203410 | 70 | 45 | 0.0 | 0.0 | 0.00 | 0.00 | 0.00 | 1116.4 | |
| 20260502202904 | 70 | 45 | 0.0 | 0.0 | 0.00 | 0.00 | 0.00 | 1116.3 | |
| 20260502202359 | 70 | 45 | 0.0 | 0.0 | 0.00 | 0.00 | 0.00 | 1116.4 | |
| 20260502201853 | 70 | 45 | 0.0 | 0.0 | 0.00 | 0.00 | 0.00 | 1116.3 | |
| 20260502201348 | 70 | 45 | 0.0 | 0.0 | 0.00 | 0.00 | 0.00 | 1116.4 | |
| 20260502200843 | 71 | 45 | 0.0 | 0.0 | 0.00 | 0.00 | 0.00 | 1116.4 | |
| 20260502200337 | 71 | 45 | 0.0 | 0.0 | 0.00 | 0.00 | 0.00 | 1116.5 | |
| 20260502195832 | 71 | 45 | 0.0 | 0.0 | 0.00 | 0.00 | 0.00 | 1116.5 | |
| 20260502195326 | 71 | 45 | 0.0 | 0.0 | 0.00 | 0.00 | 0.00 | 1116.5 | |
| 20260502194821 | 71 | 45 | 0.0 | 0.0 | 0.00 | 0.00 | 0.00 | 1116.4 | |
| 20260502194316 | 71 | 45 | 0.0 | 0.0 | 0.00 | 0.00 | 0.00 | 1116.4 | |
| 20260502193809 | 71 | 45 | 0.0 | 0.0 | 0.00 | 0.00 | 0.00 | 1116.3 | |
| 20260502193310 | 71 | 45 | 0.0 | 0.0 | 0.00 | 0.00 | 0.00 | 1116.3 | |
| 20260502193304 | 71 | 45 | 0.0 | 0.0 | 0.00 | 0.00 | 0.00 | 1116.3 | |
| 20260502192758 | 72 | 45 | 0.0 | 0.0 | 0.00 | 0.00 | 0.00 | 1116.4 | |
| 20260502192253 | 72 | 45 | 0.0 | 0.0 | 0.00 | 0.00 | 0.00 | 1116.3 | |
| 20260502191747 | 72 | 45 | 0.0 | 0.0 | 0.00 | 0.00 | 0.00 | 1116.4 | |
| 20260502191242 | 72 | 45 | 0.0 | 0.0 | 0.00 | 0.00 | 0.00 | 1116.3 | |
| 20260502190737 | 72 | 45 | 0.0 | 0.0 | 0.00 | 0.00 | 0.00 | 1116.3 | |
| 20260502190231 | 73 | 45 | 0.0 | 0.0 | 0.00 | 0.00 | 0.00 | 1116.1 | |
| 20260502185726 | 73 | 45 | 0.0 | 0.0 | 0.00 | 0.00 | 0.00 | 1116.2 | |
| 20260502185220 | 73 | 45 | 0.0 | 0.0 | 0.00 | 0.00 | 0.00 | 1116.1 | |
| 20260502184715 | 73 | 45 | 0.0 | 0.0 | 0.00 | 0.00 | 0.00 | 1116.1 | |
| 20260502184210 | 73 | 45 | 0.0 | 0.0 | 0.00 | 0.00 | 0.00 | 1116.1 | |
| 20260502183704 | 74 | 45 | 0.0 | 0.0 | 0.00 | 0.00 | 0.00 | 1116.1 | |
| 20260502183159 | 74 | 45 | 0.0 | 0.0 | 0.00 | 0.00 | 0.00 | 1116.0 | |
| 20260502182654 | 74 | 45 | 0.0 | 0.0 | 0.00 | 0.00 | 0.00 | 1116.0 | |
| 20260502182148 | 74 | 45 | 0.0 | 0.0 | 0.00 | 0.00 | 0.00 | 1116.0 | |
| 20260502181643 | 75 | 45 | 0.0 | 0.0 | 0.00 | 0.00 | 0.00 | 1116.0 | |
| 20260502181137 | 75 | 45 | 0.0 | 0.0 | 0.00 | 0.00 | 0.00 | 1116.0 | |
| 20260502180632 | 75 | 45 | 0.0 | 0.0 | 0.00 | 0.00 | 0.00 | 1116.0 | |
| 20260502180126 | 75 | 45 | 0.0 | 0.0 | 0.00 | 0.00 | 0.00 | 1116.0 | |
| 20260502164000 | 80 | 45 | 0.0 | 0.0 | 0.00 | 0.00 | 0.00 | 1116.1 | |
| 20260502163454 | 79 | 239 | 0.0 | 0.0 | 0.00 | 0.00 | 0.00 | 1116.2 | |
| 20260502162949 | 79 | 0 | 0.0 | 0.0 | 0.00 | 0.00 | 0.00 | 1116.2 | |
| 20260502162443 | 79 | 35 | 0.0 | 0.0 | 0.00 | 0.00 | 0.00 | 1116.3 | |
| 20260502161938 | 79 | 15 | 0.0 | 0.0 | 0.00 | 0.00 | 0.00 | 1116.3 | |
| 20260502161432 | 79 | 0 | 0.0 | 0.0 | 0.00 | 0.00 | 0.00 | 1116.4 | |
| 20260502160927 | 79 | 66 | 0.0 | 0.0 | 0.00 | 0.00 | 0.00 | 1116.4 | |
| 20260502160422 | 80 | 71 | 0.0 | 0.0 | 0.00 | 0.00 | 0.00 | 1116.4 | |
| 20260502152338 | 81 | 10 | 0.0 | 2.0 | 0.00 | 0.00 | 0.00 | 1116.8 | |
| 20260502151833 | 81 | 337 | 0.0 | 2.0 | 0.00 | 0.00 | 0.00 | 1116.8 | |
| 20260502151328 | 81 | 44 | 0.0 | 3.0 | 0.00 | 0.00 | 0.00 | 1116.8 | |
| 20260502150822 | 81 | 93 | 0.0 | 3.0 | 0.00 | 0.00 | 0.00 | 1116.9 | |
| 20260502150317 | 81 | 84 | 0.0 | 0.0 | 0.00 | 0.00 | 0.00 | 1117.0 | |
| 20260502130612 | 80 | 81 | 0.0 | 2.0 | 0.00 | 0.00 | 0.00 | 1118.7 | |
| 20260502130106 | 80 | 74 | 0.0 | 2.0 | 0.00 | 0.00 | 0.00 | 1118.8 | |
| 20260502123538 | 80 | 58 | 0.0 | 2.0 | 0.00 | 0.00 | 0.00 | 1119.0 | |
| 20260502123032 | 80 | 97 | 0.0 | 3.0 | 0.00 | 0.00 | 0.00 | 1119.1 | |
| 20260502122527 | 80 | 22 | 0.0 | 3.0 | 0.00 | 0.00 | 0.00 | 1119.2 | |
| 20260502122022 | 79 | 0 | 0.0 | 0.0 | 0.00 | 0.00 | 0.00 | 1119.3 | |
| 20260502121516 | 79 | 62 | 0.0 | 2.0 | 0.00 | 0.00 | 0.00 | 1119.4 | |
| 20260502121011 | 79 | 47 | 0.0 | 3.0 | 0.00 | 0.00 | 0.00 | 1119.5 | |
| 20260502120505 | 79 | 34 | 0.0 | 2.0 | 0.00 | 0.00 | 0.00 | 1119.6 | |
| 20260502115455 | 79 | 48 | 0.0 | 0.0 | 0.00 | 0.00 | 0.00 | 1119.6 | |
| 20260502114949 | 78 | 78 | 0.0 | 0.0 | 0.00 | 0.00 | 0.00 | 1119.7 | |
| 20260502114444 | 78 | 30 | 0.0 | 0.0 | 0.00 | 0.00 | 0.00 | 1119.7 | |
| 20260502113938 | 78 | 354 | 0.0 | 0.0 | 0.00 | 0.00 | 0.00 | 1119.9 | |
| 20260502113433 | 78 | 38 | 0.0 | 0.0 | 0.00 | 0.00 | 0.00 | 1119.9 | |
| 20260502112928 | 78 | 73 | 0.0 | 0.0 | 0.00 | 0.00 | 0.00 | 1120.0 | |
| 20260502112422 | 78 | 84 | 0.0 | 3.0 | 0.00 | 0.00 | 0.00 | 1120.1 | |
| 20260502111917 | 78 | 80 | 0.0 | 3.0 | 0.00 | 0.00 | 0.00 | 1120.1 | |
| 20260502111411 | 78 | 45 | 0.0 | 0.0 | 0.00 | 0.00 | 0.00 | 1120.2 | |
| 20260502110906 | 77 | 89 | 0.0 | 0.0 | 0.00 | 0.00 | 0.00 | 1120.3 | |
| 20260502110400 | 77 | 45 | 0.0 | 0.0 | 0.00 | 0.00 | 0.00 | 1120.2 | |
| 20260502105855 | 77 | 40 | 0.0 | 0.0 | 0.00 | 0.00 | 0.00 | 1120.3 | |
| 20260502105350 | 77 | 91 | 0.0 | 0.0 | 0.00 | 0.00 | 0.00 | 1120.4 | |
| 20260502104844 | 77 | 60 | 0.0 | 0.0 | 0.00 | 0.00 | 0.00 | 1120.6 | |
| 20260502104339 | 77 | 54 | 0.0 | 0.0 | 0.00 | 0.00 | 0.00 | 1120.6 | |
| 20260502103833 | 77 | 45 | 0.0 | 0.0 | 0.00 | 0.00 | 0.00 | 1120.7 | |
| 20260502103328 | 77 | 106 | 0.0 | 0.0 | 0.00 | 0.00 | 0.00 | 1120.7 | |
| 20260502102823 | 77 | 33 | 0.0 | 0.0 | 0.00 | 0.00 | 0.00 | 1120.7 | |
| 20260502102317 | 77 | 20 | 0.0 | 0.0 | 0.00 | 0.00 | 0.00 | 1120.8 | |
| 20260502101811 | 76 | 45 | 0.0 | 2.0 | 0.00 | 0.00 | 0.00 | 1120.9 | |
| 20260502101305 | 76 | 136 | 0.0 | 0.0 | 0.00 | 0.00 | 0.00 | 1120.9 | |
| 20260502100800 | 76 | 0 | 0.0 | 0.0 | 0.00 | 0.00 | 0.00 | 1120.9 | |
| 20260502100254 | 76 | 10 | 0.0 | 0.0 | 0.00 | 0.00 | 0.00 | 1120.9 | |
| 20260502091200 | 74 | 89 | 0.0 | 0.0 | 0.00 | 0.00 | 0.00 | 1121.5 | |
| 20260502090655 | 73 | 89 | 0.0 | 0.0 | 0.00 | 0.00 | 0.00 | 1121.6 | |
| 20260502090150 | 73 | 89 | 0.0 | 0.0 | 0.00 | 0.00 | 0.00 | 1121.5 | |
| 20260502071455 | 69 | 0 | 0.0 | 0.0 | 0.00 | 0.00 | 0.00 | 1122.3 | |
| 20260502070950 | 69 | 0 | 0.0 | 0.0 | 0.00 | 0.00 | 0.00 | 1122.4 | |
| 20260502070444 | 69 | 279 | 0.0 | 0.0 | 0.00 | 0.00 | 0.00 | 1122.4 | |
| 20260502065939 | 69 | 315 | 0.0 | 0.0 | 0.00 | 0.00 | 0.00 | 1122.5 | |
| 20260502065433 | 69 | 334 | 0.0 | 0.0 | 0.00 | 0.00 | 0.00 | 1122.5 | |
| 20260502064928 | 69 | 353 | 0.0 | 0.0 | 0.00 | 0.00 | 0.00 | 1122.3 | |
| 20260502064422 | 69 | 83 | 0.0 | 4.0 | 0.00 | 0.00 | 0.00 | 1122.4 | |
| 20260502063917 | 70 | 351 | 0.0 | 4.0 | 0.00 | 0.00 | 0.00 | 1122.4 | |
| 20260502063412 | 70 | 270 | 0.0 | 0.0 | 0.00 | 0.00 | 0.00 | 1122.5 | |
| 20260502062906 | 71 | 299 | 0.0 | 0.0 | 0.00 | 0.00 | 0.00 | 1122.4 | |
| 20260502062400 | 71 | 315 | 0.0 | 3.0 | 0.00 | 0.00 | 0.00 | 1122.5 | |
| 20260502061855 | 71 | 316 | 0.0 | 3.0 | 0.00 | 0.00 | 0.00 | 1122.5 | |
| 20260502061349 | 72 | 13 | 0.0 | 3.0 | 0.00 | 0.00 | 0.00 | 1122.6 | |
| 20260502060844 | 73 | 322 | 1.0 | 3.0 | 0.00 | 0.00 | 0.00 | 1122.5 | |
| 20260502060339 | 75 | 339 | 0.0 | 2.0 | 0.00 | 0.00 | 0.00 | 1122.4 | |
| 20260502055833 | 77 | 315 | 0.0 | 2.0 | 0.00 | 0.00 | 0.00 | 1122.4 | |
| 20260502055328 | 79 | 350 | 0.0 | 2.0 | 0.00 | 0.00 | 0.00 | 1122.5 | |
| 20260502054822 | 80 | 325 | 0.0 | 5.0 | 0.00 | 0.00 | 0.00 | 1122.4 | |
| 20260502053812 | 81 | 135 | 0.0 | 4.0 | 0.00 | 0.00 | 0.00 | 1122.4 | |
| 20260502053306 | 80 | 135 | 0.0 | 0.0 | 0.00 | 0.00 | 0.00 | 1122.3 | |
| 20260502052801 | 79 | 135 | 0.0 | 0.0 | 0.00 | 0.00 | 0.00 | 1122.3 | |
| 20260502052255 | 78 | 135 | 0.0 | 0.0 | 0.00 | 0.00 | 0.00 | 1122.4 | |
| 20260502051750 | 77 | 135 | 0.0 | 0.0 | 0.00 | 0.00 | 0.00 | 1122.4 | |
| 20260502051245 | 75 | 135 | 0.0 | 0.0 | 0.00 | 0.00 | 0.00 | 1122.5 | |
| 20260502050739 | 74 | 135 | 0.0 | 0.0 | 0.00 | 0.00 | 0.00 | 1122.5 | |
| 20260502050234 | 72 | 135 | 0.0 | 2.0 | 0.00 | 0.00 | 0.00 | 1122.4 | |
| 20260502045728 | 70 | 135 | 0.0 | 2.0 | 0.00 | 0.00 | 0.00 | 1122.4 | |
| 20260502045223 | 67 | 135 | 0.0 | 0.0 | 0.00 | 0.00 | 0.00 | 1122.5 | |
| 20260502044717 | 64 | 135 | 0.0 | 0.0 | 0.00 | 0.00 | 0.00 | 1122.4 | |
| 20260502044212 | 62 | 135 | 0.0 | 0.0 | 0.00 | 0.00 | 0.00 | 1122.4 | |
| 20260502043707 | 60 | 135 | 0.0 | 0.0 | 0.00 | 0.00 | 0.00 | 1122.5 | |
| 20260502043201 | 59 | 135 | 0.0 | 0.0 | 0.00 | 0.00 | 0.00 | 1122.5 | |
| 20260502042656 | 58 | 135 | 0.0 | 0.0 | 0.00 | 0.00 | 0.00 | 1122.5 | |
| 20260502042151 | 57 | 135 | 0.0 | 0.0 | 0.00 | 0.00 | 0.00 | 1122.5 | |
| 20260502041645 | 57 | 135 | 0.0 | 0.0 | 0.00 | 0.00 | 0.00 | 1122.5 | |
| 20260502041140 | 57 | 135 | 0.0 | 0.0 | 0.00 | 0.00 | 0.00 | 1122.6 | |
| 20260502040634 | 57 | 135 | 0.0 | 0.0 | 0.00 | 0.00 | 0.00 | 1122.4 | |
| 20260502040129 | 57 | 135 | 0.0 | 0.0 | 0.00 | 0.00 | 0.00 | 1122.6 | |
| 20260502035623 | 57 | 135 | 0.0 | 3.0 | 0.00 | 0.00 | 0.00 | 1122.4 | |
| 20260502035401 | 57 | 135 | 0.0 | 2.0 | 0.00 | 0.00 | 0.00 | 1122.3 | |
| 20260502035150 | 57 | 135 | 0.0 | 2.0 | 0.00 | 0.00 | 0.00 | 1122.5 | |
| 20260502035118 | 57 | 135 | 0.0 | 2.0 | 0.00 | 0.00 | 0.00 | 1122.5 | |
| 20260502034612 | 57 | 135 | 0.0 | 2.0 | 0.00 | 0.00 | 0.00 | 1122.3 | |
| 20260502034106 | 57 | 135 | 1.0 | 3.0 | 0.00 | 0.00 | 0.00 | 1122.2 | |
| 20260502033601 | 57 | 135 | 1.0 | 3.0 | 0.00 | 0.00 | 0.00 | 1122.2 | |
| 20260502033055 | 57 | 135 | 0.0 | 3.0 | 0.00 | 0.00 | 0.00 | 1122.2 | |
| 20260502032550 | 58 | 135 | 1.0 | 3.0 | 0.00 | 0.00 | 0.00 | 1122.3 | |
| 20260502032044 | 58 | 135 | 0.0 | 3.0 | 0.00 | 0.00 | 0.00 | 1122.3 | |
| 20260502031539 | 58 | 135 | 0.0 | 3.0 | 0.00 | 0.00 | 0.00 | 1122.4 | |
| 20260502031033 | 58 | 135 | 1.0 | 5.0 | 0.00 | 0.00 | 0.00 | 1122.4 | |
| 20260502030528 | 58 | 135 | 1.0 | 5.0 | 0.00 | 0.00 | 0.00 | 1122.5 | |
| 20260502030023 | 58 | 135 | 2.0 | 4.0 | 0.00 | 0.00 | 0.00 | 1122.6 | |
| 20260502025517 | 59 | 135 | 1.0 | 3.0 | 0.00 | 0.00 | 0.00 | 1122.6 | |
| 20260502025012 | 59 | 135 | 1.0 | 4.0 | 0.00 | 0.00 | 0.00 | 1122.5 | |
| 20260502024507 | 59 | 135 | 1.0 | 3.0 | 0.00 | 0.00 | 0.00 | 1122.6 | |
| 20260502024001 | 59 | 135 | 0.0 | 3.0 | 0.00 | 0.00 | 0.00 | 1122.5 | |
| 20260502023456 | 59 | 135 | 0.0 | 3.0 | 0.00 | 0.00 | 0.00 | 1122.5 | |
| 20260502022950 | 60 | 135 | 0.0 | 2.0 | 0.00 | 0.00 | 0.00 | 1122.5 | |
| 20260502022445 | 60 | 135 | 0.0 | 2.0 | 0.00 | 0.00 | 0.00 | 1122.5 | |
| 20260502021940 | 60 | 135 | 0.0 | 0.0 | 0.00 | 0.00 | 0.00 | 1122.4 | |
| 20260502021434 | 60 | 135 | 0.0 | 0.0 | 0.00 | 0.00 | 0.00 | 1122.6 | |
| 20260502020929 | 60 | 135 | 0.0 | 0.0 | 0.00 | 0.00 | 0.00 | 1122.6 | |
| 20260502020423 | 60 | 135 | 0.0 | 0.0 | 0.00 | 0.00 | 0.00 | 1122.5 | |
| 20260502015918 | 60 | 135 | 0.0 | 0.0 | 0.00 | 0.00 | 0.00 | 1122.5 | |
| 20260502015412 | 60 | 135 | 0.0 | 0.0 | 0.00 | 0.00 | 0.00 | 1122.5 | |
| 20260502014907 | 60 | 135 | 0.0 | 0.0 | 0.00 | 0.00 | 0.00 | 1122.5 | |
| 20260502014402 | 60 | 135 | 0.0 | 0.0 | 0.00 | 0.00 | 0.00 | 1122.4 | |
| 20260502013856 | 60 | 135 | 0.0 | 0.0 | 0.00 | 0.00 | 0.00 | 1122.5 | |
| 20260502013351 | 60 | 135 | 0.0 | 0.0 | 0.00 | 0.00 | 0.00 | 1122.4 | |
| 20260502012845 | 60 | 135 | 0.0 | 0.0 | 0.00 | 0.00 | 0.00 | 1122.5 | |
| 20260502012340 | 60 | 135 | 0.0 | 0.0 | 0.00 | 0.00 | 0.00 | 1122.5 | |
| 20260502011835 | 60 | 135 | 0.0 | 0.0 | 0.00 | 0.00 | 0.00 | 1122.6 | |
| 20260502011329 | 60 | 135 | 0.0 | 0.0 | 0.00 | 0.00 | 0.00 | 1122.5 | |
| 20260502010824 | 60 | 135 | 0.0 | 0.0 | 0.00 | 0.00 | 0.00 | 1122.5 | |
| 20260502010318 | 60 | 135 | 0.0 | 0.0 | 0.00 | 0.00 | 0.00 | 1122.6 | |
| 20260502005814 | 60 | 135 | 0.0 | 0.0 | 0.00 | 0.00 | 0.00 | 1122.6 | |
| 20260502005307 | 60 | 135 | 0.0 | 0.0 | 0.00 | 0.00 | 0.00 | 1122.7 |